World > North America > United States > Wisconsin > Sheboygan   City of Sheboygan, Wisconsin

Sheboygan, WI Hourly Weather Conditions

Feedback E-mail the Weather

Quick WX

Sheboygan, WI Weather Maps

°F °C°F °C
Sheboygan Weather Map
UTC Time: 12/2/2022, 12:49
Your Time:

Sheboygan, WI Regional Weather

Expires:202212021300;;174790
ASUS43 KMKX 021220
RWRWI 

WISCONSIN REGIONAL WEATHER ROUNDUP
NATIONAL WEATHER SERVICE MILWAUKEE/SULLIVAN WI
600 AM CST FRI DEC 02 2022

NOTE: "FAIR" INDICATES FEW OR NO CLOUDS BELOW 12,000 FEET WITH NO
SIGNIFICANT WEATHER AND/OR OBSTRUCTIONS TO VISIBILITY.


WIZ051-052-058>065-066-070>072-021300-
SOUTHEAST WISCONSIN
  
CITY           SKY/WX    TMP DP  RH WIND       PRES   REMARKS
MILWAUKEE      MOCLDY    37  20  50 S7        29.98F WCI  32          
6HR MIN TEMP:  33; 6HR MAX TEMP:  39;                                

WAUKESHA       CLOUDY    34  19  55 S6G21     29.98F WCI  29          
MILWAUKEE/TIMM CLOUDY    34  19  55 S10       29.98F WCI  26          
RACINE         CLOUDY    39  20  46 S9G18     30.01F WCI  33          
6HR MIN TEMP:  33; 6HR MAX TEMP:  39;                                

KENOSHA        CLOUDY    40  21  46 SW14      30.00F WCI  32          
6HR MIN TEMP:  34; 6HR MAX TEMP:  40;                                

FOND DU LAC    CLEAR     32  22  66 S12       29.93F WCI  23          
6HR MIN TEMP:  30; 6HR MAX TEMP:  32;                                

SHEBOYGAN      CLEAR     28  19  69 S9        29.96F WCI  19          
6HR MIN TEMP:  28; 6HR MAX TEMP:  33;                                

WEST BEND      CLOUDY    32  21  64 S3        29.95F                  
JUNEAU         PTCLDY    29  22  75 SE8       29.94F WCI  21          
6HR MIN TEMP:  27; 6HR MAX TEMP:  29;                                

$$


SKY/WX - Weather  TMP - Temperature  DP - Dew Point  RH - Humidity
WIND - Wind Direction/Speed PRES - Barometric Pressure VSB - Visibility
WCI - Wind Chill Index E13G22 Wind - East Wind 13 mph/Gusts of 22 mph

Trending Headlines

Trending Entertainment Headlines

Sheboygan Radar Loop

Use the map search tool if you want to place a location marker on the radar map...

Sheboygan Quick Facts

National Two Day Weather Forecast


E-mail the Sheboygan Weather Forecast

Voice your opinion or tell us about page issues...